Regional Weather Roundup
Issued by NWS Jackson, KY

Home | Current Version | Previous Version | Graphics & Text | Print | Product List | Glossary On
Versions: 1 2 3 4 5 6 7 8 9 10 11 12 13 14 15 16 17 18 19 20 21 22 23 24 25 26 27 28 29 30 31 32 33 34 35 36 37 38 39 40 41 42 43 44 45 46 47 48 49 50
000
ASUS43 KJKL 041610
RWRJKL

EAST KENTUCKY HOURLY WEATHER ROUNDUP
NATIONAL WEATHER SERVICE JACKSON KY
1200 PM EDT MON MAY 04 2015

NOTE: "FAIR" INDICATES FEW OR NO CLOUDS BELOW 12,000 FEET WITH
NO SIGNIFICANT WEATHER AND/OR OBSTRUCTIONS TO VISIBILITY.

* THESE REPORTS ARE NOT UNDER NWS QUALITY CONTROL AND MAY NOT
  REPORT WEATHER SUCH AS PRECIPITATION AND FOG.

KYZ079-080-083-085-087-088-110-112-115-119-120-041700
...EASTERN KENTUCKY...

CITY           SKY/WX    TMP DP  RH WIND       PRES   REMARKS
JACKSON        SUNNY     77  50  38 VRB3      30.29S
LONDON         SUNNY     78  47  33 W10       30.29S
SOMERSET*      SUNNY     73  50  43 SW10      30.30S
MONTICELLO*    SUNNY     78  54  43 SW12      30.32R
MIDDLESBORO*   MOSUNNY   76  52  43 S8        30.31S
HARLAN APT*    SUNNY     73  45  35 W6        30.32S
HAZARD APT*    MOSUNNY   77  50  38 W6G17     30.30R
BLACK MTN*       N/A     64  46  52 W1          N/A
PIKEVILLE APT* MOSUNNY   75  52  43 SW7       30.30S
BIG SANDY*     SUNNY     76  53  44 SW8       30.29S
MOREHEAD APT*  SUNNY     75  52  43 SW14G22   30.28R
$$

KYZ035-036-041-042-044-050-067-078-099-041700
...CENTRAL KENTUCKY...

CITY           SKY/WX    TMP DP  RH WIND       PRES   REMARKS
MT STERLING*   SUNNY     75  54  46 W8G16     30.27S
FLEMING/MASON* SUNNY     77  55  47 W17       30.25S
DANVILLE*      SUNNY     77  54  44 SW12      30.27S
RICHMOND*      SUNNY     75  52  43 SW10      30.27S
LEXINGTON      SUNNY     76  55  48 SW12      30.25R
FRANKFORT      PTSUNNY   75  52  44 SW14      30.23R
$$

KYZ091>093-OHZ055-061-077-WVZ005-015-034-035-042-041700
...SOUTHERN OHIO/WEST VIRGINIA...

CITY           SKY/WX    TMP DP  RH WIND       PRES   REMARKS
COVINGTON      PTSUNNY   77  54  44 SW9G17    30.20S
COLUMBUS       MOSUNNY   77  51  40 SW16G24   30.17S
DAYTON         PTSUNNY   78  53  41 SW20      30.19R
WILMINGTON     SUNNY     76  50  40 W17G24    30.20R
HUNTINGTON     MOSUNNY   77  52  41 SW8       30.25S
CHARLESTON     MOSUNNY   78  48  34 W7        30.26R
PINEVILLE*     SUNNY     76  49  38 MISG      30.35F
BECKLEY        MOSUNNY   73  45  36 SW12G22   30.33R
BLUEFIELD      MOSUNNY   73  43  33 W9G20     30.35R
$$

VAZ002-007-008-TNZ017-027-036-066-071-041700
...SOUTHWEST VIRGINIA/EAST TENNESSEE...

CITY           SKY/WX    TMP DP  RH WIND       PRES   REMARKS
WISE*          SUNNY     70  45  40 SW10G17   30.37S
JONESVILLE*    SUNNY     73  48  40 SW8       30.35S
ABINGDON*      SUNNY     73  48  40 W6        30.35R
BRISTOL        SUNNY     75  50  41 W6        30.33R
KNOXVILLE      MOSUNNY   76  52  43 VRB6      30.31R
OAK RIDGE      SUNNY     76  52  43 CALM      30.32S
CROSSVILLE     MOSUNNY   74  45  35 VRB7      30.33S
NASHVILLE      PTSUNNY   79  52  38 SW6       30.27S
$$

...KEY TO REMARKS...
VSB - VISIBILITY IN MILES
WCI - WIND CHILL INDEX
HX  - HEAT INDEX

$$


USA.gov is the U.S. government's official web portal to all federal, state and local government web resources and services.